Location: Dehesa de la Cepeda
(40.6574°N, 4.3013°W)
Time: 19:33:41
(UTC+00:00)

IRIS - Pass Details

Date: 05 July 2020
Orbit: 279 x 2722 km, 41.2° (Epoch: 05 August)

Event Time Altitude Azimuth Distance (km) Brightness Sun altitude
Rises 20:33:19 0° 251° (WSW) 2,985 9.0 -7.4°
Reaches altitude 10° 20:36:11 10° 248° (WSW) 1,747 7.8 -7.8°
Maximum altitude 20:39:50 65° 167° (SSE) 419 4.0 -8.3°
Drops below altitude 10° 20:42:23 10° 83° (E) 1,214 6.2 -8.7°
Enters shadow 20:42:59 - 82° (E) 1,482 6.6 -8.8°
